User: anonymous   Login
Location: Borgo
(42.3939°N, 9.2791°E)
Time: 15:53:49
(UTC+00:00)
Language:

Cosmos 1939 Rocket - Orbit

View from above orbital plane
View from above orbital plane
View from above satellite
View from above satellite

Ground track
Ground track

The orbit data is extracted from the following two-line orbital elements,

1 19046U 88032B   21108.15166079 -.00000139  00000-0 -58347-5 0  9995
2 19046  97.3915 121.4576 0034732 247.0055 112.7505 15.02907698783011
Epoch (UTC): 18 April 2021 03:38:23
Eccentricity: 0.0034732
inclination: 97.3915°
perigee height: 534 km
apogee height: 582 km
right ascension of ascending node: 121.4576°
argument of perigee: 247.0055°
revolutions per day: 15.02907698
mean anomaly at epoch: 112.7505°
orbit number at epoch: 78301

The dashed part of the orbit path shows where the satellite is in the earth's shadow,  

DLR